TimeMST,TemperatureF,Dew PointF,Humidity,Sea Level PressureIn,VisibilityMPH,Wind Direction,Wind SpeedMPH,Gust SpeedMPH,PrecipitationIn,Events,Conditions,WindDirDegrees,DateUTC
12:56 AM,18.0,10.0,71,29.98,10.0,NW,5.8,-,N/A,,Overcast,310,2014-02-03 07:56:00
1:56 AM,19.9,10.9,68,29.97,10.0,Calm,Calm,-,N/A,,Overcast,0,2014-02-03 08:56:00
2:56 AM,15.1,8.1,74,29.98,10.0,East,3.5,-,N/A,,Overcast,100,2014-02-03 09:56:00
3:56 AM,12.9,8.1,81,29.96,10.0,SSW,9.2,-,N/A,,Overcast,210,2014-02-03 10:56:00
4:56 AM,14.0,8.1,77,30.00,10.0,West,4.6,-,N/A,,Overcast,270,2014-02-03 11:56:00
5:56 AM,15.1,8.1,74,30.01,10.0,SW,3.5,-,N/A,,Overcast,220,2014-02-03 12:56:00
6:56 AM,14.0,8.1,77,30.02,10.0,SW,10.4,-,N/A,,Overcast,220,2014-02-03 13:56:00
7:56 AM,14.0,7.0,74,30.01,10.0,NW,16.1,-,N/A,,Overcast,310,2014-02-03 14:56:00
8:46 AM,14.0,9.0,80,29.85,2.5,NW,5.8,-,0.00,Snow,Light Snow,310,2014-02-03 15:46:00
8:56 AM,14.0,9.0,80,30.04,1.5,North,6.9,-,0.00,Snow,Light Snow,10,2014-02-03 15:56:00
9:04 AM,14.0,8.1,77,29.86,1.0,North,9.2,-,0.00,Snow,Light Snow,10,2014-02-03 16:04:00
9:11 AM,12.9,8.1,81,29.86,0.8,North,6.9,-,0.00,Snow,Light Snow,10,2014-02-03 16:11:00
9:47 AM,14.0,8.1,77,29.85,1.0,WNW,6.9,-,0.00,Snow,Light Snow,300,2014-02-03 16:47:00
9:56 AM,14.0,8.1,77,30.04,1.5,WNW,5.8,-,0.00,Snow,Light Snow,290,2014-02-03 16:56:00
10:19 AM,14.0,8.1,77,29.86,2.0,WNW,10.4,-,0.01,Snow,Light Snow,300,2014-02-03 17:19:00
10:27 AM,14.0,8.1,77,29.85,2.0,WNW,10.4,-,0.01,Snow,Light Snow,300,2014-02-03 17:27:00
10:45 AM,14.0,8.1,77,29.86,3.0,WNW,9.2,-,0.01,Snow,Light Snow,300,2014-02-03 17:45:00
10:52 AM,14.0,8.6,79,29.86,2.0,WNW,8.1,-,0.01,Snow,Light Snow,300,2014-02-03 17:52:00
10:56 AM,14.0,8.1,77,30.03,1.8,NW,8.1,-,0.01,Snow,Light Snow,310,2014-02-03 17:56:00
11:04 AM,15.1,8.1,74,29.86,2.0,WNW,8.1,-,0.00,Snow,Light Snow,300,2014-02-03 18:04:00
11:07 AM,15.1,8.1,74,29.86,1.8,WNW,6.9,-,0.00,Snow,Light Snow,290,2014-02-03 18:07:00
11:19 AM,15.1,9.0,77,29.86,1.0,West,9.2,-,0.00,Snow,Light Snow,280,2014-02-03 18:19:00
11:56 AM,12.9,8.1,81,30.05,0.8,WNW,10.4,-,0.00,Snow,Light Snow,290,2014-02-03 18:56:00
12:21 PM,14.0,9.0,80,29.86,0.5,WNW,11.5,-,0.00,Snow,Snow,290,2014-02-03 19:21:00
12:56 PM,14.0,9.0,80,30.05,0.5,WSW,10.4,-,0.00,Snow,Snow,240,2014-02-03 19:56:00
1:26 PM,12.9,8.1,81,29.86,0.5,South,8.1,-,0.00,Snow,Snow,190,2014-02-03 20:26:00
1:37 PM,12.9,8.1,81,29.86,0.5,South,6.9,-,0.00,Snow,Snow,190,2014-02-03 20:37:00
1:56 PM,12.9,8.1,81,30.05,0.8,Variable,3.5,-,0.01,Snow,Light Snow,0,2014-02-03 20:56:00
2:16 PM,12.0,6.1,77,29.87,1.0,SE,11.5,-,0.00,Snow,Light Snow,140,2014-02-03 21:16:00
2:30 PM,12.0,6.1,77,29.87,0.8,SSE,10.4,-,0.00,Snow,Light Snow,160,2014-02-03 21:30:00
2:40 PM,12.0,6.1,77,29.87,1.0,SE,13.8,-,0.00,Snow,Light Snow,140,2014-02-03 21:40:00
2:54 PM,12.2,5.0,73,29.89,1.5,SSE,16.1,-,0.00,Snow,Light Snow,150,2014-02-03 21:54:00
2:56 PM,12.0,5.0,73,30.09,1.5,SSE,16.1,-,0.00,Snow,Light Snow,150,2014-02-03 21:56:00
3:04 PM,10.9,5.0,77,29.89,1.2,SSE,16.1,-,0.00,Snow,Light Snow,160,2014-02-03 22:04:00
3:34 PM,10.9,3.9,73,29.90,1.8,SE,13.8,-,0.00,Snow,Light Snow,140,2014-02-03 22:34:00
3:45 PM,10.9,3.9,73,29.91,2.0,SSE,12.7,-,0.00,Snow,Light Snow,150,2014-02-03 22:45:00
3:52 PM,10.4,3.2,73,29.91,1.5,SSE,13.8,-,0.00,Snow,Light Snow,150,2014-02-03 22:52:00
3:56 PM,10.9,3.0,70,30.13,1.2,SSE,11.5,-,0.00,Snow,Light Snow,150,2014-02-03 22:56:00
4:27 PM,10.0,3.0,73,29.93,2.0,SE,10.4,-,0.00,,Haze,140,2014-02-03 23:27:00
4:36 PM,10.0,3.0,73,29.93,5.0,SSE,10.4,-,0.00,,Haze,150,2014-02-03 23:36:00
4:54 PM,8.6,1.4,73,29.95,1.8,South,10.4,-,0.00,Snow,Light Snow,170,2014-02-03 23:54:00
4:56 PM,9.0,1.9,73,30.17,1.5,SSE,10.4,-,0.00,Snow,Light Snow,160,2014-02-03 23:56:00
5:04 PM,9.0,1.9,73,29.95,0.8,SSE,10.4,-,0.00,Snow,Light Snow,150,2014-02-04 00:04:00
5:56 PM,8.1,1.9,76,30.20,1.2,ESE,11.5,-,0.00,Snow,Light Snow,120,2014-02-04 00:56:00
6:15 PM,7.0,-0.0,73,29.98,1.8,SSE,10.4,-,0.00,Snow,Light Snow,150,2014-02-04 01:15:00
6:23 PM,7.0,-0.0,73,29.99,2.0,SE,12.7,-,0.00,Snow,Light Snow,140,2014-02-04 01:23:00
6:32 PM,7.0,-0.0,73,29.99,2.5,SSE,16.1,-,0.00,Snow,Light Snow,150,2014-02-04 01:32:00
6:39 PM,7.0,-0.9,70,29.99,4.0,SSE,16.1,-,0.00,Snow,Light Snow,160,2014-02-04 01:39:00
6:56 PM,7.0,-0.9,70,30.22,6.0,SSE,15.0,-,0.00,,Haze,150,2014-02-04 01:56:00
7:40 PM,7.0,-0.0,73,30.00,2.5,South,4.6,-,0.00,Snow,Light Snow,190,2014-02-04 02:40:00
7:56 PM,6.1,-0.0,76,30.25,2.0,North,-9999.0,-,0.00,Snow,Light Snow,0,2014-02-04 02:56:00
8:14 PM,6.1,-0.9,73,30.02,3.0,WNW,9.2,-,0.00,Snow,Light Snow,290,2014-02-04 03:14:00
8:21 PM,5.0,-0.9,76,30.03,3.0,WNW,9.2,-,0.00,Snow,Light Snow,290,2014-02-04 03:21:00
8:53 PM,5.0,-0.4,78,30.03,2.5,West,15.0,-,0.00,Snow,Light Snow,260,2014-02-04 03:53:00
8:56 PM,5.0,-0.9,76,30.27,2.0,WSW,15.0,-,0.00,Snow,Light Snow,250,2014-02-04 03:56:00
9:14 PM,3.9,-0.9,80,30.04,3.0,WSW,13.8,-,0.00,,Haze,240,2014-02-04 04:14:00
9:56 PM,3.9,-2.9,73,30.30,6.0,WSW,11.5,-,0.00,,Haze,250,2014-02-04 04:56:00
10:42 PM,3.9,-2.9,73,30.07,2.0,West,8.1,-,0.00,Snow,Light Snow,260,2014-02-04 05:42:00
10:51 PM,3.2,-2.2,78,30.07,1.5,West,5.8,-,0.00,Snow,Light Snow,260,2014-02-04 05:51:00
10:56 PM,3.9,-2.0,76,30.31,1.8,West,4.6,-,0.00,Snow,Light Snow,280,2014-02-04 05:56:00
11:04 PM,3.9,-2.9,73,30.07,3.0,West,3.5,-,0.00,Snow,Light Snow,280,2014-02-04 06:04:00
11:25 PM,3.0,-2.9,76,30.08,2.5,WNW,6.9,-,0.00,Snow,Light Snow,300,2014-02-04 06:25:00
11:37 PM,3.0,-2.9,76,30.08,3.0,NW,6.9,-,0.00,Snow,Light Snow,310,2014-02-04 06:37:00
11:56 PM,3.0,-2.9,76,30.34,3.0,WNW,6.9,-,0.00,Snow,Light Snow,300,2014-02-04 06:56:00